Regional Weather Roundup
Issued by NWS

Home | Current Version | Previous Version | Graphics & Text | Print | Product List | Glossary On
Versions: 1 2 3 4 5 6 7 8 9 10 11 12 13 14 15 16 17 18 19 20 21 22 23 24 25 26 27 28 29 30 31 32 33 34 35 36 37 38 39 40 41 42 43 44 45 46 47 48 49 50
000
ASUS43 KLSX 190507
RWRMO

WEATHER SUMMARY FOR MISSOURI
NATIONAL WEATHER SERVICE SPRINGFIELD MO
1100 PM CST THU DEC 18 2014

NOTE: "FAIR" INDICATES FEW OR NO CLOUDS BELOW 12,000 FEET WITH NO
       SIGNIFICANT WEATHER AND/OR OBSTRUCTIONS TO VISIBILITY.
       CURRENT SKY AND/OR WEATHER CONDITIONS ARE NOT AVAILABLE FOR
       CHILLICOTHE AND FARMINGTON.

MOZ001>031-035>038-043-044-053-054-190600-
...NORTHERN AND WESTERN MISSOURI...

CITY           SKY/WX    TMP DP  RH WIND       PRES   REMARKS
KANSAS CTY INT FOG       31  30  96 E6        30.26R VSB 1/4 WCI  25
KANSAS C DTWN  CLOUDY    33  30  88 NE6       30.27S FOG     WCI  28
LEE`S SUMMIT   CLOUDY    32  30  92 E5        30.27R FOG     WCI  27
ST JOSEPH      CLOUDY    31  28  89 E3        30.28S FOG
CHILLICOTHE      N/A     31  27  85 CALM      30.30R
KIRKSVILLE     CLOUDY    29  26  89 E3        30.28S

$$
MOZ066>068-077>081-088>096-101>105-190600-
...SOUTHWEST MISSOURI...

CITY           SKY/WX    TMP DP  RH WIND       PRES   REMARKS
SPRINGFIELD    CLOUDY    37  36  96 NE6       30.22R FOG
JOPLIN         CLOUDY    36  35  96 NE3       30.24S

$$
MOZ032>034-039>042-045>050-055>058-069>072-190600-
...CENTRAL MISSOURI...

CITY           SKY/WX    TMP DP  RH WIND       PRES   REMARKS
COLUMBIA       CLOUDY    32  30  92 E6        30.27R FOG     WCI  26
JEFFERSON CITY CLOUDY    34  31  88 E3        30.29R
ROLLA          FOG       32  32 100 NE5       30.23S VSB 1/4 WCI  27
SEDALIA        FOG       33  32  96 E5        30.27R VSB 3/4 WCI  29
WHITEMAN AFB   CLOUDY    33  31  96 NE3       30.26R FOG
WARRENSBURG    CLOUDY    32  32 100 NE3       30.27R FOG
OSAGE BEACH    CLOUDY    34  32  93 CALM      30.25S VSB 1/2

$$
MOZ051-052-059>065-190600-
...EAST CENTRAL MISSOURI...

CITY           SKY/WX    TMP DP  RH WIND       PRES   REMARKS
ST LOUIS INTL  CLOUDY    34  25  69 CALM      30.30R
SPIRIT OF STL  CLOUDY    33  27  78 NE3       30.29R
ST CHARLES     CLOUDY    32  27  81 CALM      30.30R

$$
MOZ072>076-082>087-097>100-106>115-190600-
...SOUTH CENTRAL AND SOUTHEAST MISSOURI...

CITY           SKY/WX    TMP DP  RH WIND       PRES   REMARKS
CAPE GIRARDEAU CLOUDY    36  33  89 NE6       30.28S
FARMINGTON     CLOUDY    34  34 100 N5        30.26F VSB 1   WCI  30
POPLAR BLUFF   CLOUDY    36  32  85 N3        30.28R
WEST PLAINS    CLOUDY    36  35  96 E3        30.25R FOG

$$



USA.gov is the U.S. government's official web portal to all federal, state and local government web resources and services.